Papa, Hungary

5:25 AM CEST on April 25, 2018 (GMT +0200)
Papa

Weather History for LHPA - May, 2013

Change the Weather History Date:

Tuesday, May 21, 2013

  Actual Average Record
Temperature  
Mean Temperature 60 °F -  
Max Temperature 69 °F - - ()
Min Temperature 50 °F - - ()
Degree Days  
Heating Degree Days 6    
Growing Degree Days 10 (Base 50)    
Moisture  
Dew Point 47 °F    
Average Humidity 62    
Maximum Humidity 87    
Minimum Humidity 40    
Precipitation  
Precipitation 0.00 in - - ()
Sea Level Pressure  
Sea Level Pressure 29.89 in    
Wind  
Wind Speed 8 mph ()    
Max Wind Speed 13 mph    
Max Gust Speed 18 mph    
Visibility 5.9 miles    
Events Rain , Thunderstorm    
T = Trace of Precipitation, MM = Missing Value Source: Averaged Metar Reports

Daily Weather History Graph

Daily Weather History Graph

Search for Another Location

Airport or City:

Astronomy

May. 21, 2013 Rise Set
Actual Time 5:07 AM CEST 8:26 PM CEST
Civil Twilight 4:30 AM CEST 9:04 PM CEST
Nautical Twilight 3:41 AM CEST 9:53 PM CEST
Astronomical Twilight 2:39 AM CEST 10:55 PM CEST
Moon 4:05 PM CEST (5/21) 2:42 AM CEST (5/21)
Length of Visible Light 16h 33m
Length of Day
15h 19m
Waxing Gibbous, 81% of the Moon is Illuminated
May 21
Waxing Gibbous
May 25
Full
May 31
Last Quarter
Jun 8
New
Jun 16
First Quarter

Hourly Weather History & Observations

Time (CEST) Temp. Dew Point Humidity Pressure Visibility Wind Dir Wind Speed Gust Speed Precip Events Conditions
12:15 AM 55.4 °F 46.4 °F 72% 29.92 in - South 8.9 mph - N/A   Clear
12:45 AM 55.4 °F 46.4 °F 72% 29.92 in - South 6.7 mph - N/A   Clear
1:15 AM 55.4 °F 46.4 °F 72% 29.95 in - South 6.7 mph - N/A   Clear
1:45 AM 55.4 °F 46.4 °F 72% 29.92 in - South 11.2 mph - N/A   Clear
2:15 AM 55.4 °F 44.6 °F 67% 29.92 in - South 11.2 mph - N/A   Clear
2:45 AM 53.6 °F 46.4 °F 77% 29.92 in - South 8.9 mph - N/A   Clear
3:15 AM 53.6 °F 46.4 °F 77% 29.92 in - South 8.9 mph - N/A   Clear
3:45 AM - - N/A% - 6.2 mi SW 8.9 mph - N/A   Clear
4:15 AM 53.6 °F 46.4 °F 77% 29.92 in - South 8.9 mph - N/A   Clear
4:45 AM 51.8 °F 46.4 °F 82% 29.92 in - South 8.9 mph - N/A   Clear
5:15 AM 51.8 °F 46.4 °F 82% 29.92 in - South 8.9 mph - N/A   Clear
5:45 AM 50.0 °F 46.4 °F 87% 29.92 in - South 4.5 mph - N/A   Clear
6:15 AM 51.8 °F 46.4 °F 82% 29.95 in - SW 4.5 mph - N/A   Clear
6:45 AM - - N/A% - 6.2 mi SW 8.9 mph - N/A   Clear
7:15 AM 55.4 °F 46.4 °F 72% 29.95 in - SSW 11.2 mph - N/A   Clear
7:45 AM 57.2 °F 44.6 °F 63% 29.95 in - SSW 11.2 mph - N/A   Clear
8:15 AM 59.0 °F 46.4 °F 63% 29.92 in - SSW 8.9 mph - N/A   Clear
8:45 AM 59.0 °F 48.2 °F 67% 29.92 in - South 6.7 mph - N/A   Clear
9:15 AM 60.8 °F 48.2 °F 63% 29.92 in 6.2 mi SSW 8.9 mph - N/A   Partly Cloudy
9:45 AM - - N/A% - 6.2 mi SW 8.9 mph - N/A   Overcast
10:15 AM 60.8 °F 48.2 °F 63% 29.95 in 6.2 mi WSW 8.9 mph - N/A   Scattered Clouds
10:45 AM 62.6 °F 50.0 °F 63% 29.95 in 6.2 mi West 4.5 mph - N/A   Scattered Clouds
11:15 AM 64.4 °F 50.0 °F 59% 29.95 in 6.2 mi South 4.5 mph - N/A   Scattered Clouds
11:45 AM 64.4 °F 48.2 °F 56% 29.95 in 6.2 mi SW 6.7 mph 17.9 mph N/A   Scattered Clouds
12:15 PM 66.2 °F 48.2 °F 52% 29.95 in 6.2 mi SW 6.7 mph - N/A   Scattered Clouds
12:45 PM - - N/A% - 6.2 mi SW 8.9 mph - N/A   Overcast
1:15 PM 66.2 °F 48.2 °F 52% 29.92 in 6.2 mi SSW 8.9 mph - N/A   Scattered Clouds
1:45 PM 68.0 °F 46.4 °F 46% 29.92 in - SSW 8.9 mph - N/A   Clear
2:15 PM 69.8 °F 48.2 °F 46% 29.89 in - SSW 8.9 mph - N/A   Clear
2:45 PM 68.0 °F 48.2 °F 49% 29.89 in - SSW 6.7 mph - N/A   Clear
3:15 PM 68.0 °F 48.2 °F 49% 29.89 in - South 8.9 mph - N/A   Clear
3:45 PM - - N/A% - 3.1 mi SSW 8.9 mph - N/A Rain , Thunderstorm Rain Showers
4:15 PM 69.8 °F 46.4 °F 43% 29.86 in - SW 11.2 mph - N/A   Clear
4:45 PM 68.0 °F 46.4 °F 46% 29.86 in - South 8.9 mph - N/A   Clear
5:15 PM 69.8 °F 44.6 °F 40% 29.83 in - SSW 13.4 mph - N/A   Clear
5:45 PM 69.8 °F 44.6 °F 40% 29.83 in - South 11.2 mph - N/A   Clear
6:15 PM 69.8 °F 44.6 °F 40% 29.83 in - South 8.9 mph - N/A   Clear
6:45 PM - - N/A% - 5.0 mi South 8.9 mph - N/A Rain , Thunderstorm Rain Showers
7:15 PM 66.2 °F 46.4 °F 49% 29.80 in 6.2 mi South 11.2 mph - N/A   Mostly Cloudy
7:45 PM 64.4 °F 48.2 °F 56% 29.80 in 6.2 mi South 11.2 mph - N/A   Mostly Cloudy
8:15 PM 62.6 °F 46.4 °F 55% 29.83 in 6.2 mi SSE 8.9 mph - N/A   Scattered Clouds
8:45 PM 60.8 °F 46.4 °F 59% 29.83 in - SSE 8.9 mph - N/A   Clear
9:15 PM 59.0 °F 46.4 °F 63% 29.83 in - SSE 8.9 mph - N/A   Clear
9:45 PM 57.2 °F 46.4 °F 67% 29.83 in - SSE 6.7 mph - N/A   Clear
10:15 PM 57.2 °F 44.6 °F 63% 29.83 in - SSE 6.7 mph - N/A   Clear
10:45 PM 55.4 °F 46.4 °F 72% 29.83 in - SSE 8.9 mph - N/A   Clear
11:15 PM 55.4 °F 46.4 °F 72% 29.80 in - South 6.7 mph - N/A   Clear
11:45 PM 53.6 °F 46.4 °F 77% 29.80 in - South 6.7 mph - N/A   Clear